[[{"header":{"parameterUnit":"m.s-1","parameterCategory":1,"la1":30.2991,"la2":30.254,"lo1":-89.0895,"lo2":-89.0444,"dy":0.0017,"dx":0.0017,"nx":28,"ny":28,"refTime":"2026-02-16T09:00:00:Z","depth":0,"parameterNumber":2,"parameterNumberName":"U-component_of_WINDS"},"data":[0,0,0,0,0,0,0,0,0,0,0,0,0,0,0,0,0,0,0,0,0,0,0,0,0,0,0,0,0,0,0,0,0,0,0,0,0,0,0,0,0,0,0,0,0,0,0,0,0,0,0,0,0,0,0,0,0,0,0.5046,0.5047,0,0.5185,0.5186,0.5188,0.5239,0.5238,0.5238,0.5238,0.5377,0.5381,0.5385,0,0,0,0,0,0,0,0,0,0,0,0,0,0.4821,0.4825,0.5046,0.5048,0.5049,0.5184,0.5186,0.5188,0.5239,0.5238,0.5238,0.5237,0.5376,0.5381,0.5386,0,0,0,0,0,0,0,0,0,0,0,0,0,0.4935,0.4826,0.5045,0.5091,0.5096,0.5184,0.5186,0.5189,0.5239,0.5238,0.5238,0.5237,0.5374,0.538,0.5386,0.5438,0,0,0.5405,0.5408,0,0,0,0,0,0,0,0,0.4929,0.4943,0.5083,0.5088,0.5094,0.5194,0.5158,0.5272,0.5239,0.5185,0.5237,0.5237,0.5317,0.5327,0.5355,0.5445,0.5451,0.5406,0.541,0.5412,0.5414,0,0,0,0,0,0,0,0.4921,0.4938,0.5101,0.5084,0.5092,0.5103,0.5119,0.518,0.5253,0.5189,0.5194,0.5209,0.532,0.5349,0.5359,0.5453,0.5406,0.5411,0.5415,0.5417,0.559,0.5591,0,0,0,0,0,0,0.4906,0.4931,0.5096,0.5105,0.5008,0.5108,0.5125,0.5162,0.5252,0.5265,0.521,0.5211,0.5338,0.5351,0.5364,0.543,0.5412,0.5418,0.5422,0.5589,0.559,0.5591,0,0,0,0,0,0,0.4901,0.492,0.5091,0.5019,0.5042,0.5112,0.5154,0.5166,0.5195,0.5268,0.528,0.5227,0.5338,0.5355,0.5419,0.5435,0.5421,0.5426,0.5588,0.5589,0.5591,0.5562,0,0,0,0,0,0,0.4894,0.4918,0.4939,0.5019,0.5045,0.5145,0.5155,0.5169,0.5206,0.5209,0.5287,0.5299,0.5339,0.5409,0.5425,0.5443,0.5431,0.5587,0.5589,0.559,0.5562,0.5562,0.5562,0,0,0,0,0,0.4886,0.4926,0.494,0.496,0.5074,0.5146,0.5161,0.5207,0.5207,0.5228,0.5275,0.5296,0.543,0.5416,0.5434,0.5454,0.5586,0.5588,0.559,0.5561,0.5562,0.5562,0,0,0,0,0,0,0.4846,0.4937,0.4954,0.5021,0.5075,0.5154,0.5183,0.5206,0.5261,0.5261,0.5315,0.5333,0.5392,0.5429,0.5411,0.5508,0.551,0.5515,0.5482,0.5483,0.5483,0.5473,0.5436,0,0,0,0,0,0.4844,0.4896,0.4973,0.5024,0.5051,0.5112,0.5145,0.5176,0.5234,0.5257,0.5308,0.5363,0.5417,0.5452,0.5506,0.5567,0.5584,0.5589,0.5589,0.5589,0.5594,0.5627,0.563,0.5597,0.5597,0.5597,0,0,0.4843,0.4899,0.4929,0.5018,0.5063,0.5115,0.5131,0.5185,0.5223,0.5265,0.5329,0.5368,0.5432,0.5494,0.5524,0.5527,0.5606,0.5592,0.5591,0.5596,0.563,0.5633,0.5635,0.5599,0.5598,0.5598,0,0,0.4866,0.4914,0.4962,0.5007,0.5076,0.5116,0.5127,0.5203,0.523,0.5295,0.5327,0.5372,0.5465,0.5509,0.5544,0.5581,0.5603,0.5597,0.5599,0.5631,0.5633,0.5636,0.5649,0.5653,0.5601,0.5601,0.5601,0,0.4856,0.4935,0.4984,0.5036,0.5073,0.5113,0.5161,0.5202,0.5285,0.5309,0.5311,0.5427,0.5473,0.5546,0.5555,0.5582,0.5595,0.5589,0.5629,0.5632,0.5635,0.5648,0.5653,0.56,0.56,0.56,0.56,0,0.4918,0.4973,0.5003,0.5082,0.5123,0.5172,0.5227,0.5262,0.5288,0.5327,0.5392,0.5448,0.5514,0.5533,0.5559,0.5609,0.5608,0.5619,0.5622,0.5636,0.5649,0.5655,0.5598,0.5598,0.5599,0.5599,0,0,0.4922,0.5026,0.5036,0.5072,0.515,0.5192,0.5242,0.5307,0.5336,0.539,0.5433,0.5509,0.5519,0.5558,0.559,0.5618,0.5642,0.5625,0.5627,0.5626,0.5699,0.5691,0.5696,0.5657,0.5658,0.5659,0.5694,0,0.4956,0.5049,0.5093,0.5166,0.5216,0.5254,0.5297,0.5349,0.5386,0.5433,0.5473,0.5527,0.5536,0.556,0.5589,0.5633,0.5658,0.5631,0.5696,0.5698,0.568,0.5703,0.5695,0.5725,0.5699,0.57,0.57,0,0.5008,0.5063,0.5142,0.5212,0.5235,0.5273,0.5335,0.538,0.5438,0.5463,0.5505,0.5535,0.5587,0.5585,0.5658,0.5639,0.5667,0.5693,0.5695,0.5704,0.5701,0.5712,0.5736,0.5741,0.5709,0.5708,0.5708,0,0.5003,0.5096,0.5155,0.5184,0.5268,0.5294,0.533,0.5387,0.5423,0.5476,0.5499,0.5557,0.5589,0.5633,0.5677,0.5671,0.5744,0.5747,0.5766,0.5765,0.5781,0.5779,0.581,0.5798,0.5798,0.5798,0.5798,0,0.5036,0.5083,0.5154,0.519,0.5242,0.5291,0.5341,0.5379,0.543,0.5473,0.5508,0.5547,0.5603,0.5648,0.5683,0.5737,0.5751,0.5772,0.578,0.5769,0.5766,0.5789,0.5788,0.5799,0.5799,0.5799,0.5798,0,0.504,0.509,0.5156,0.5229,0.5248,0.5284,0.5346,0.5381,0.5419,0.5473,0.5488,0.5548,0.5604,0.5651,0.5724,0.5747,0.5803,0.5813,0.5784,0.5788,0.5805,0.5803,0.5852,0.5861,0.5842,0.5842,0.5842,0,0.5059,0.5095,0.5172,0.5204,0.5239,0.529,0.5326,0.5374,0.541,0.5478,0.5505,0.5563,0.5612,0.5698,0.5747,0.5803,0.5815,0.5828,0.5824,0.581,0.5815,0.5812,0.5816,0.5829,0.5829,0.5829,0.5829,0,0.5086,0.5108,0.516,0.5219,0.5261,0.531,0.536,0.5383,0.544,0.5478,0.5536,0.5574,0.5648,0.5705,0.5765,0.58,0.5824,0.5829,0.5837,0.5826,0.5807,0.5817,0.5784,0.5828,0.5828,0.5828,0.5828,0.5828,0.5098,0.5132,0.5191,0.5246,0.5289,0.5334,0.537,0.5413,0.5462,0.5527,0.5551,0.561,0.5665,0.5748,0.5783,0.5828,0.5832,0.5843,0.5846,0.5848,0.5846,0.5799,0.5839,0.584,0.584,0.584,0.584,0,0.5127,0.5167,0.5217,0.5286,0.5328,0.5346,0.5402,0.5436,0.5487,0.5537,0.5585,0.5649,0.5704,0.5756,0.5813,0.5839,0.5851,0.5852,0.5851,0.5859,0.5839,0.5827,0.5842,0.5842,0.5842,0.5842,0.5842,0.5842,0.5148,0.5206,0.5234,0.5312,0.5351,0.5409,0.5439,0.548,0.552,0.5591,0.5637,0.5671,0.5721,0.5782,0.5832,0.5845,0.5865,0.5863,0.588,0.5861,0.586,0.5859,0.5848,0.5867,0.5867,0.5895,0.5896,0.5896]},{"header":{"parameterUnit":"m.s-1","parameterCategory":1,"la1":30.2991,"la2":30.254,"lo1":-89.0895,"lo2":-89.0444,"dy":0.0017,"dx":0.0017,"nx":28,"ny":28,"refTime":"2026-02-16T09:00:00:Z","depth":0,"parameterNumber":3,"parameterNumberName":"V-component_of_WINDS"},"data":[0,0,0,0,0,0,0,0,0,0,0,0,0,0,0,0,0,0,0,0,0,0,0,0,0,0,0,0,0,0,0,0,0,0,0,0,0,0,0,0,0,0,0,0,0,0,0,0,0,0,0,0,0,0,0,0,0,0,3.7168,3.7167,0,3.7081,3.7079,3.7078,3.7001,3.7,3.6999,3.6998,3.69,3.6898,3.6896,0,0,0,0,0,0,0,0,0,0,0,0,0,3.7261,3.726,3.7168,3.7167,3.7166,3.7081,3.7079,3.7078,3.7001,3.7,3.6999,3.6998,3.6901,3.6898,3.6896,0,0,0,0,0,0,0,0,0,0,0,0,0,3.7202,3.7259,3.7168,3.7117,3.7112,3.7081,3.7079,3.7078,3.7001,3.7,3.6999,3.6997,3.6901,3.6899,3.6896,3.6906,0,0,3.6888,3.6887,0,0,0,0,0,0,0,0,3.7205,3.7198,3.7126,3.7121,3.7115,3.705,3.7076,3.702,3.7002,3.7043,3.6998,3.6997,3.695,3.6944,3.693,3.6901,3.6897,3.6887,3.6886,3.6885,3.6884,0,0,0,0,0,0,0,3.7209,3.7201,3.7133,3.7125,3.7118,3.7096,3.7086,3.7065,3.7005,3.7039,3.7034,3.7025,3.6947,3.6933,3.6927,3.6895,3.6888,3.6885,3.6883,3.6882,3.6869,3.6871,0,0,0,0,0,0,3.7222,3.7205,3.7136,3.7131,3.7158,3.7096,3.7085,3.7072,3.7005,3.6994,3.7026,3.7021,3.6938,3.693,3.6923,3.6931,3.6885,3.6882,3.6881,3.6868,3.687,3.6871,0,0,0,0,0,0,3.7225,3.7217,3.714,3.7166,3.7155,3.7096,3.7082,3.7071,3.7057,3.6995,3.6983,3.7023,3.6937,3.6927,3.6911,3.6926,3.6881,3.6878,3.6867,3.6869,3.687,3.6946,0,0,0,0,0,0,3.7228,3.7218,3.7223,3.7167,3.7154,3.7132,3.7083,3.707,3.7053,3.7047,3.6989,3.6978,3.6935,3.6916,3.6909,3.6922,3.6876,3.6865,3.6868,3.687,3.6942,3.695,3.6957,0,0,0,0,0,3.7231,3.7246,3.7224,3.7216,3.716,3.7133,3.7125,3.7078,3.7055,3.7059,3.7019,3.698,3.6926,3.6915,3.6906,3.6919,3.6864,3.6867,3.687,3.6938,3.6949,3.6957,0,0,0,0,0,0,3.7303,3.7238,3.7213,3.7211,3.7178,3.712,3.7123,3.709,3.7061,3.7056,3.6995,3.6983,3.6974,3.6944,3.6933,3.6924,3.6889,3.6891,3.6945,3.6954,3.6961,3.6969,3.6874,0,0,0,0,0,3.7319,3.7306,3.7248,3.7252,3.7237,3.7183,3.717,3.7136,3.7099,3.7084,3.7043,3.7006,3.6981,3.6965,3.6938,3.6936,3.6922,3.694,3.6948,3.6955,3.6957,3.6954,3.6961,3.6881,3.6881,3.688,0,0,3.7351,3.7314,3.7309,3.7265,3.7236,3.7222,3.7172,3.7158,3.7146,3.7081,3.7065,3.7033,3.6988,3.698,3.6974,3.6954,3.6976,3.6959,3.6965,3.6963,3.6958,3.6965,3.6972,3.6883,3.6882,3.6882,0,0,3.7403,3.7373,3.7374,3.7346,3.7304,3.7268,3.7268,3.7215,3.7192,3.7176,3.7127,3.7109,3.7067,3.7037,3.7016,3.7056,3.7019,3.7048,3.7089,3.7086,3.7093,3.7098,3.7113,3.7119,3.705,3.705,3.705,0,3.7447,3.7426,3.7377,3.7367,3.7349,3.7292,3.7291,3.7265,3.7215,3.7203,3.7182,3.7128,3.7093,3.7078,3.7088,3.7072,3.7069,3.7055,3.7096,3.7101,3.7105,3.7119,3.7124,3.7054,3.7053,3.7053,3.7053,0,3.7483,3.7469,3.7474,3.7431,3.7412,3.7406,3.7355,3.7341,3.7309,3.7274,3.7257,3.7213,3.7177,3.717,3.7137,3.7149,3.7139,3.7108,3.7072,3.7118,3.7129,3.7134,3.706,3.7058,3.7057,3.7056,0,0,3.7579,3.7509,3.7512,3.7492,3.744,3.7427,3.7417,3.7385,3.7375,3.7341,3.7331,3.7296,3.7268,3.7244,3.7207,3.7205,3.724,3.7174,3.7172,3.7189,3.725,3.7275,3.7282,3.7214,3.7215,3.7215,3.7254,0,3.7623,3.7607,3.7562,3.7558,3.7544,3.7489,3.748,3.7447,3.7414,3.7394,3.7356,3.7333,3.7297,3.7282,3.7278,3.7237,3.7251,3.7233,3.7203,3.7202,3.7218,3.7288,3.7313,3.7352,3.7258,3.7259,3.726,0,3.7673,3.7647,3.7642,3.7592,3.7584,3.7578,3.7545,3.7527,3.7487,3.7463,3.7437,3.7396,3.738,3.7347,3.7324,3.7312,3.7296,3.7274,3.7274,3.7271,3.7235,3.7287,3.7364,3.737,3.7266,3.7265,3.7265,0,3.7745,3.7707,3.77,3.7684,3.7625,3.7622,3.7597,3.7555,3.7539,3.7508,3.7496,3.7462,3.7444,3.7418,3.7368,3.7348,3.735,3.7312,3.7329,3.733,3.7333,3.7334,3.741,3.7321,3.7321,3.7321,3.7321,0,3.7799,3.7799,3.7732,3.7728,3.7725,3.7672,3.767,3.7639,3.7603,3.759,3.7538,3.7526,3.746,3.744,3.74,3.7387,3.7379,3.7357,3.7347,3.7363,3.7366,3.7353,3.735,3.7322,3.7322,3.7321,3.7321,0,3.788,3.7835,3.7824,3.7769,3.7755,3.7756,3.7708,3.77,3.7664,3.7648,3.7641,3.7583,3.7557,3.7505,3.7462,3.7435,3.7431,3.7412,3.7447,3.744,3.746,3.746,3.7532,3.7539,3.7445,3.7446,3.7447,0,3.7919,3.7918,3.7864,3.7853,3.7831,3.7813,3.7797,3.7743,3.7727,3.7681,3.7679,3.7649,3.7623,3.7582,3.7534,3.7502,3.7482,3.7509,3.7477,3.7493,3.7483,3.7485,3.7485,3.7517,3.7519,3.752,3.752,0,3.7993,3.7971,3.795,3.7922,3.7904,3.7878,3.785,3.7843,3.7782,3.7766,3.774,3.772,3.7678,3.7649,3.7609,3.7579,3.754,3.7531,3.7533,3.755,3.7571,3.7561,3.7468,3.753,3.7529,3.7528,3.7528,3.7527,3.8054,3.8051,3.8013,3.7992,3.7965,3.7939,3.793,3.7894,3.7872,3.7837,3.7805,3.7782,3.7739,3.7683,3.7656,3.7635,3.7615,3.7618,3.7619,3.7621,3.7628,3.7574,3.7627,3.7626,3.7626,3.7626,3.7625,0,3.8127,3.81,3.8081,3.8044,3.8026,3.7993,3.7959,3.7946,3.7928,3.7893,3.7869,3.7838,3.7809,3.776,3.7726,3.7718,3.7699,3.7711,3.7712,3.7706,3.7647,3.7649,3.7728,3.7728,3.7728,3.7728,3.7727,3.7727,3.8163,3.8156,3.8129,3.8108,3.808,3.806,3.8043,3.8018,3.7991,3.7961,3.7938,3.7906,3.7865,3.7828,3.7799,3.7784,3.7774,3.7793,3.7773,3.7719,3.771,3.7701,3.7703,3.7791,3.7791,3.7833,3.7834,3.7834]}]]